Regional Weather Roundup
Issued by NWS Charleston, SC

Current Version | Previous Version | Graphics & Text | Print | Product List | Glossary On
Versions: 1 2 3 4 5 6 7 8 9 10 11 12 13 14 15 16 17 18 19 20 21 22 23 24 25 26 27 28 29 30 31 32 33 34 35 36 37 38 39 40 41 42 43 44 45 46 47 48 49 50
360 ASUS42 KCHS 131313 RWRCHS REGIONAL WEATHER ROUNDUP NATIONAL WEATHER SERVICE CHARLESTON SC 800 AM EST SAT FEB 13 2016 NOTE: "FAIR" INDICATES FEW OR NO CLOUDS BELOW 12,000 FEET WITH NO SIGNIFICANT WEATHER AND/OR OBSTRUCTIONS TO VISIBILITY. NOT ALL STATIONS ARE QUALITY CONTROLLED BY THE NATIONAL WEATHER SERVICE. USE DATA WITH CAUTION...ESPECIALLY DEWPOINT OBSERVATIONS. SCZ027-030-031-034>040-042>050-131400- ...SOUTHEAST SOUTH CAROLINA... CITY SKY/WX TMP DP RH WIND PRES REMARKS N CHARLESTON CLEAR 35 30 82 NW7 30.25R WCI 29 WATERFRONT PRK N/A 38 33 82 NW5 30.07R WCI 34 MOUNT PLEASANT FAIR 36 32 87 NW3 30.24R JOHNS ISLAND FAIR 37 32 81 NW5 30.24R WCI 34 PINOPOLIS N/A 39 28 65 N14 30.13R WCI 31 MONCKS CORNER FAIR 36 21 55 N6 30.24R WCI 31 SUMMERVILLE FAIR 34 32 93 CALM 30.26R BEAUFORT MCAS PTCLDY 41 30 65 N6 30.26R BEAUFORT ARPT FAIR 41 32 70 N7 30.25R HILTON HEAD IS CLEAR 43 32 65 N12G21 30.27R WALTERBORO MOSUNNY 34 32 93 CALM 30.27R ALLENDALE FAIR 39 28 65 NW5 30.26R WCI 36 ...SOUTHERN MIDLANDS AND PEE DEE... CITY SKY/WX TMP DP RH WIND PRES REMARKS GEORGETOWN FAIR 32 28 86 NW3 30.24R KINGSTREE FAIR 28 27 93 CALM 30.24R ORANGEBURG CLEAR 36 24 62 N5 30.25R WCI 32 BARNWELL FAIR 36 30 80 CALM 30.26R AIKEN FAIR 32 25 74 N3 30.27R MANNING FAIR 28 27 93 CALM 30.24R COLUMBIA CLEAR 35 20 54 NW6 30.25R WCI 30 SUMTER CLEAR 32 24 72 NW6 30.22R WCI 27 FLORENCE CLEAR 28 25 88 NW5 30.23R WCI 23 MYRTLE BEACH SUNNY 30 23 74 N7 30.23R WCI 23 N MYRTLE BEACH SUNNY 34 28 79 NW3 30.22R $$ GAZ063-065-086>088-099>101-113>116-118-119-134>141-150-131400- ...SOUTHEAST GEORGIA... CITY SKY/WX TMP DP RH WIND PRES REMARKS SAVANNAH ARPT CLEAR 41 31 67 NW7 30.26R HUNTER AAF CLEAR 42 32 69 NW12 30.23R FORT STEWART CLEAR 43 25 48 NW7 30.25R STATESBORO CLEAR 42 26 52 NW5 30.27R SYLVANIA SUNNY 39 32 76 NW7 30.27R WCI 34 CLAXTON FAIR 40 31 68 W5 30.27R WCI 37 ...CSRA...CENTRAL AND FAR SOUTHEAST GEORGIA... CITY SKY/WX TMP DP RH WIND PRES REMARKS THOMSON CLEAR 35 28 76 W8 30.29R WCI 28 AUGUSTA-BUSH CLEAR 36 25 64 W7 30.26R WCI 30 AUGUSTA-DANIEL CLEAR 37 21 52 W5 30.25R WCI 33 SWAINSBORO FAIR 36 27 69 NW9 30.28R WCI 29 VIDALIA CLEAR 39 28 65 NW7 30.28R WCI 34 EASTMAN FAIR 38 28 67 NW3 30.33R HAZLEHURST FAIR 42 32 66 NW6 30.28R ALMA CLEAR 43 28 55 NW13 30.28R WAYCROSS CLEAR 47 35 63 N8 30.28R JESUP FAIR 46 34 61 NW12 30.26R BAXLEY FAIR 43 30 61 NW8 30.28R BRUNSWICK CLEAR 46 36 66 W5 30.26R SAINT SIMONS CLEAR 46 33 60 NW7 30.24R $$ SCZ027-028-034-036>038-045-046-048>050-GAZ119-141-131400- ...LAKE AND SUPPLEMENTAL COASTAL OBSERVATIONS... STATION/POSITION TIME TEMP WIND PRES WAVE SWELL AIR SEA DIR/SP/G HT/PER HT/PER/DIR (UTC) (F) (DEG/KT/KT) (MB) (FT/S) (FT/S/D) WINYAH BAY NOT AVBL LAKE MURRAY 1200 33 330/ 3/ 8 1022.4R ACE BASIN NERRS NOT AVBL FORT PULASKI 1200 43 49 300/ 8/ 11 1023.8R SAPELO ISLAND 1200 45 300/ 9 1024.0R $$ ANZ835-935-AMZ111-154-330-350-352-354-370-450-454-472-131400- ...C-MAN AND BUOY OBSERVATIONS... STATION/POSITION TIME TEMP WIND PRES WAVE SWELL AIR SEA DIR/SP/G HT/PER HT/PER/DIR (UTC) (F) (DEG/KT/KT) (MB) (FT/S) (FT/S/D) BUOY 41004 1150 48 67 350/ 17/ 23 1021.2 4/ 4 2/ 9 BUOY 41008 1150 49 52 320/ 17/ 19 1023.0 3/ 3 FOLLY BEACH CMAN 1200 36 310/ 4/ 5 1022.9R CAPERS NEARSHORE 1208 41 330/ 12/ 16 1022.3R FRIPP NEARSHORE 1200 44 320/ 14/ 16 1022.4R STATION/POSITION TIME TEMP WIND PRES WAVE SWELL AIR SEA DIR/SP/G HT/PER HT/PER/DIR (UTC) (F) (DEG/KT/KT) (MB) (FT/S) (FT/S/D) 5E ST. MARYS GA NOT AVBL FRYING PAN BUOY 1200 43 53 350/ 19/ 23 1021.6R BUOY 41025 1150 38 71 340/ 19/ 25 1019.2 5/ 8 3/140/10 CAPE LOOKOUT NC NOT AVBL BUOY 41002 1150 60 68 310/ 17/ 23 N/A 10/10 7/260/10 BUOY 41010 1220 70 72 1020.4R ST AUGUSTINE FL 1200 53 57 330/ 8/ 10 1023.9R $$

USA.gov is the U.S. government's official web portal to all federal, state and local government web resources and services.